Holland, MI

7:20 AM EDT on April 20, 2018 (GMT -0400)
Tulip City

Weather History for KBIV - May, 2012

Change the Weather History Date:

Sunday, May 6, 2012

  Actual Average Record
Temperature  
Mean Temperature 60 °F 56 °F  
Max Temperature 68 °F 66 °F 89 °F (1959)
Min Temperature 52 °F 45 °F 25 °F (1968)
Degree Days  
Heating Degree Days 5 10  
Month to date heating degree days 64  
Since 1 July heating degree days 5943  
Cooling Degree Days 0 0  
Month to date cooling degree days 0  
Year to date cooling degree days 4  
Growing Degree Days 10 (Base 50)    
Moisture  
Dew Point 52 °F    
Average Humidity 72    
Maximum Humidity 84    
Minimum Humidity 59    
Precipitation  
Precipitation 0.59 in 0.11 in 1.64 in (1976)
Month to date precipitation 2.12 0.69  
Year to date precipitation 10.10  
Sea Level Pressure  
Sea Level Pressure 30.01 in    
Wind  
Wind Speed 9 mph (East)    
Max Wind Speed 21 mph    
Max Gust Speed 33 mph    
Visibility 9 miles    
Events Rain , Thunderstorm    
T = Trace of Precipitation, MM = Missing Value Source: NWS Daily Summary

Daily Weather History Graph

Daily Weather History Graph

Search for Another Location

Airport or City:

Astronomy

May. 06, 2012 Rise Set
Actual Time 6:31 AM EDT 8:51 PM EDT
Civil Twilight 6:00 AM EDT 9:22 PM EDT
Nautical Twilight 5:21 AM EDT 10:01 PM EDT
Astronomical Twilight 4:38 AM EDT 10:45 PM EDT
Moon 9:57 PM EDT (5/6) 6:40 AM EDT (5/6)
Length of Visible Light 15h 22m
Length of Day
14h 19m
Full, 100% of the Moon is Illuminated
May 6
Full
May 12
Last Quarter
May 20
New
May 28
First Quarter
Jun 4
Full

Hourly Weather History & Observations

Time (EDT) Temp. Dew Point Humidity Pressure Visibility Wind Dir Wind Speed Gust Speed Precip Events Conditions
12:53 AM 54.0 °F 44.1 °F 69% 30.07 in 10.0 mi East 5.8 mph - N/A   Mostly Cloudy
1:53 AM 52.0 °F 45.0 °F 77% 30.00 in 10.0 mi East 13.8 mph - N/A   Clear
2:53 AM 52.0 °F 44.1 °F 74% 30.05 in 10.0 mi East 4.6 mph - N/A   Scattered Clouds
4:53 AM 53.1 °F 44.1 °F 71% 30.07 in 10.0 mi East 6.9 mph - N/A   Overcast
5:53 AM 53.1 °F 45.0 °F 74% 30.07 in 10.0 mi East 5.8 mph - N/A   Overcast
6:53 AM 54.0 °F 46.0 °F 75% 30.09 in 10.0 mi East 8.1 mph - N/A   Overcast
7:53 AM 54.0 °F 46.9 °F 77% 30.10 in 10.0 mi East 5.8 mph - N/A   Overcast
8:53 AM 55.9 °F 48.0 °F 75% 30.09 in 10.0 mi East 9.2 mph - N/A   Overcast
9:53 AM 59.0 °F 50.0 °F 72% 30.07 in 10.0 mi East 9.2 mph - N/A   Overcast
10:53 AM 64.0 °F 53.1 °F 67% 30.07 in 10.0 mi East 9.2 mph - N/A   Partly Cloudy
11:53 AM 68.0 °F 55.0 °F 63% 30.06 in 10.0 mi East 10.4 mph - N/A   Clear
12:53 PM 68.0 °F 54.0 °F 61% 30.03 in 10.0 mi East 12.7 mph - N/A   Clear
1:53 PM 66.9 °F 54.0 °F 63% 30.05 in 10.0 mi East 6.9 mph - N/A   Clear
2:53 PM 66.9 °F 55.0 °F 66% 30.08 in 10.0 mi NE 3.5 mph - 0.01 in Rain Light Rain
3:00 PM 66.2 °F 55.4 °F 68% 30.09 in 9.0 mi Calm Calm - 0.00 in Rain , Thunderstorm Light Thunderstorms and Rain
3:53 PM 62.1 °F 57.9 °F 86% 30.09 in 5.0 mi North 6.9 mph - 0.12 in Rain Light Rain
4:53 PM 64.0 °F 57.0 °F 78% 29.96 in 10.0 mi East 15.0 mph 20.7 mph 0.06 in   Clear
5:53 PM 66.0 °F 55.9 °F 70% 29.92 in 10.0 mi East 15.0 mph - N/A   Clear
6:53 PM 66.9 °F 55.0 °F 66% 29.91 in 10.0 mi ESE 10.4 mph - N/A   Scattered Clouds
7:53 PM 66.9 °F 54.0 °F 63% 29.90 in 10.0 mi ESE 12.7 mph - N/A Thunderstorm Overcast
8:31 PM 62.6 °F 55.4 °F 77% 29.97 in 5.0 mi East 9.2 mph 20.7 mph 0.10 in Rain , Thunderstorm Thunderstorms and Rain
8:53 PM 61.0 °F 55.0 °F 81% 29.95 in 6.0 mi ENE 13.8 mph 20.7 mph 0.18 in Rain , Thunderstorm Thunderstorms and Rain
9:27 PM 60.8 °F 53.6 °F 77% 29.94 in 10.0 mi East 12.7 mph 23.0 mph 0.04 in   Mostly Cloudy
9:34 PM 60.8 °F 53.6 °F 77% 29.94 in 10.0 mi East 15.0 mph 20.7 mph 0.04 in Rain , Thunderstorm Light Rain
9:53 PM 60.1 °F 53.1 °F 78% 29.96 in 10.0 mi East 11.5 mph 25.3 mph 0.07 in Rain , Thunderstorm Light Thunderstorms and Rain
10:12 PM 59.0 °F 51.8 °F 77% 29.96 in 10.0 mi East 12.7 mph 21.9 mph 0.02 in Rain Light Rain
10:31 PM 57.2 °F 51.8 °F 82% 29.96 in 8.0 mi East 13.8 mph - 0.06 in Rain , Thunderstorm Rain
10:53 PM 57.9 °F 51.1 °F 78% 29.95 in 6.0 mi ESE 17.3 mph 24.2 mph 0.12 in Rain Rain
11:53 PM 57.0 °F 48.9 °F 74% 29.93 in 10.0 mi East 11.5 mph - 0.03 in   Overcast